AD2FB Weather Reports


time (UTC)temp
C
wind
direction
speed
KPH
gust
KPH
rain 1hr
cm
rain 24hr
cm
rain mn
cm
humidity
%
barometer
mb
20260506051033 10 72 6.4 8.0 0.00 0.30 0.00 93 1009.9
20260506045030 10 50 4.8 6.4 0.00 0.30 0.00 93 1009.7
20260506044019 10 79 3.2 6.4 0.00 0.30 0.00 93 1009.6
20260506043048 10 124 4.8 8.0 0.00 0.30 0.00 92 1009.6
20260506042035 10 64 4.8 8.0 0.00 0.30 0.00 92 1009.9
20260506041025 10 54 4.8 8.0 0.00 0.30 0.00 92 1009.9
20260506040033 10 310 4.8 6.4 0.00 0.30 0.00 92 1009.8
20260506035024 10 349 4.8 8.0 0.00 0.30 0.30 92 1009.7
20260506034030 11 341 4.8 9.7 0.00 0.30 0.30 92 1009.7
20260506033043 11 309 4.8 8.0 0.00 0.30 0.30 91 1009.9
20260506032028 11 238 6.4 8.0 0.00 0.30 0.30 91 1010.2
20260506031035 11 90 4.8 11.3 0.00 0.30 0.30 90 1010.1
20260506030025 11 52 6.4 8.0 0.00 0.30 0.30 90 1010.0
20260506025033 11 297 6.4 11.3 0.00 0.30 0.30 90 1009.9
20260506024022 11 57 6.4 11.3 0.00 0.30 0.30 91 1009.9
20260506023030 11 324 6.4 11.3 0.00 0.30 0.30 90 1009.7
20260506022020 12 42 6.4 12.9 0.00 0.30 0.30 89 1009.6
20260506021027 12 87 6.4 9.7 0.00 0.30 0.30 88 1009.6
20260506020055 13 293 6.4 9.7 0.00 0.30 0.30 88 1009.4
20260506015024 15 43 4.8 8.0 0.00 0.30 0.30 86 1009.9
20260506014053 15 292 4.8 8.0 0.00 0.30 0.30 81 1009.6
20260506013021 16 276 8.0 12.9 0.00 0.30 0.30 80 1009.0
20260506012030 16 286 6.4 12.9 0.00 0.30 0.30 80 1008.9
20260506011019 16 275 3.2 4.8 0.00 0.30 0.30 80 1008.7
20260506010027 16 242 1.6 4.8 0.00 0.30 0.30 79 1008.6
20260506005035 17 290 3.2 6.4 0.00 0.30 0.30 79 1008.5
20260506004044 17 265 4.8 8.0 0.00 0.30 0.30 77 1008.3
20260506003033 17 274 4.8 8.0 0.00 0.30 0.30 76 1008.2
20260506002022 17 265 3.2 8.0 0.00 0.30 0.30 75 1007.9
20260506001030 17 277 3.2 6.4 0.00 0.30 0.30 76 1007.8
20260506000040 18 259 3.2 6.4 0.00 0.30 0.30 80 1007.8
20260505235027 18 200 1.6 4.8 0.00 0.30 0.30 80 1007.5
20260505234056 18 0.0 0.0 0.00 0.30 0.30 79 1007.5
20260505233025 18 247 0.0 3.2 0.00 0.30 0.30 78 1007.5
20260505232033 18 90 0.0 3.2 0.00 0.30 0.30 78 1007.2
20260505231023 18 0.0 0.0 0.00 0.30 0.30 77 1007.1
20260505230030 19 313 0.0 3.2 0.00 0.30 0.30 76 1007.0
20260505225020 20 248 0.0 4.8 0.00 0.30 0.30 75 1007.0
20260505224048 20 248 3.2 8.0 0.00 0.30 0.30 73 1007.0
20260505223036 20 174 3.2 6.4 0.00 0.30 0.30 73 1007.1
20260505222025 20 282 4.8 11.3 0.00 0.30 0.30 72 1006.9
20260505221033 20 317 6.4 11.3 0.00 0.30 0.30 73 1006.9
20260505220022 20 138 8.0 16.1 0.00 0.30 0.30 70 1006.9
20260505215030 22 219 8.0 19.3 0.00 0.30 0.30 58 1006.6
20260505214041 22 241 8.0 16.1 0.00 0.30 0.30 55 1006.2
20260505213028 23 288 3.2 8.0 0.00 0.30 0.30 55 1005.8
20260505212036 23 324 6.4 12.9 0.00 0.30 0.30 55 1005.8
20260505211025 24 249 4.8 8.0 0.00 0.30 0.30 55 1005.8
20260505210033 25 192 6.4 9.7 0.03 0.30 0.30 55 1005.8
20260505205023 24 324 6.4 11.3 0.03 0.30 0.30 56 1005.8
20260505204030 23 268 8.0 16.1 0.03 0.30 0.30 58 1006.1
20260505203020 23 355 8.0 11.3 0.03 0.30 0.30 58 1006.1
20260505202028 23 157 9.7 16.1 0.03 0.30 0.30 60 1006.4
20260505201036 23 248 8.0 14.5 0.03 0.30 0.30 63 1006.5
20260505200025 23 279 4.8 8.0 0.00 0.28 0.28 66 1006.7
20260505195032 22 218 8.0 12.9 0.00 0.28 0.28 67 1006.7
20260505194022 22 231 4.8 9.7 0.00 0.28 0.28 70 1007.0
20260505193051 21 288 3.2 6.4 0.03 0.28 0.28 76 1007.0
20260505192020 19 161 4.8 8.0 0.03 0.28 0.28 82 1007.1
20260505191028 17 227 4.8 9.7 0.05 0.28 0.28 86 1007.5
20260505190035 17 155 6.4 12.9 0.18 0.28 0.28 83 1007.5
20260505185025 17 212 4.8 9.7 0.25 0.28 0.28 85 1007.4
20260505184033 18 279 4.8 11.3 0.25 0.28 0.28 85 1007.0
20260505183022 18 147 1.6 3.2 0.23 0.25 0.25 85 1006.7
20260505182030 18 255 3.2 4.8 0.23 0.25 0.25 84 1006.2
20260505181020 18 180 6.4 9.7 0.20 0.23 0.23 86 1006.2
20260505180028 22 294 6.4 11.3 0.08 0.10 0.10 61 1005.8
20260505175035 23 278 4.8 8.0 0.00 0.03 0.03 50 1005.7
20260505174025 23 254 9.7 16.1 0.00 0.03 0.03 49 1005.9
20260505173113 25 295 8.0 11.3 0.00 0.03 0.03 46 1005.9
20260505172042 24 243 6.4 9.7 0.00 0.03 0.03 48 1006.3
20260505171030 24 234 6.4 11.3 0.00 0.03 0.03 48 1006.4
20260505170040 23 153 8.0 14.5 0.00 0.03 0.03 49 1006.7
20260505165027 23 99 6.4 11.3 0.00 0.03 0.03 50 1006.7
20260505164036 23 262 3.2 4.8 0.00 0.03 0.03 50 1006.5
20260505163030 23 287 8.0 12.9 0.00 0.03 0.03 49 1006.5
20260505162033 23 212 8.0 19.3 0.00 0.03 0.03 49 1006.2
20260505161022 23 339 6.4 11.3 0.00 0.03 0.03 49 1006.2
20260505153035 24 282 8.0 12.9 0.00 0.03 0.03 48 1006.7
20260505152024 23 281 9.7 14.5 0.00 0.03 0.03 49 1006.9
20260505151032 24 302 9.7 19.3 0.00 0.03 0.03 49 1006.7
20260505125031 20 191 3.2 8.0 0.00 0.03 0.03 62 1006.9
20260505124040 19 238 4.8 6.4 0.00 0.03 0.03 65 1006.9
20260505123028 19 244 3.2 6.4 0.00 0.03 0.03 67 1007.1
20260505122036 17 260 6.4 17.7 0.00 0.03 0.03 72 1007.2
20260505121046 16 122 4.8 12.9 0.00 0.03 0.03 79 1007.3
20260505120033 14 170 3.2 4.8 0.00 0.03 0.03 89 1007.3
20260505115023 13 245 1.6 4.8 0.00 0.03 0.03 97 1007.2
20260505114031 13 227 3.2 6.4 0.00 0.03 0.03 99 1007.3
20260505113020 12 0.0 0.0 0.00 0.03 0.03 99 1007.1
20260505112049 12 0.0 0.0 0.00 0.03 0.03 99 1006.9
20260505111036 11 248 0.0 4.8 0.00 0.03 0.03 99 1006.8
20260505102041 11 0.0 0.0 0.03 0.03 0.03 99 1006.6
20260505101029 11 118 1.6 3.2 0.03 0.03 0.03 99 1006.6
20260505100037 11 0.0 0.0 0.03 0.03 0.03 99 1006.6
20260505095027 11 225 0.0 3.2 0.03 0.03 0.03 99 1006.6
20260505094054 11 0.0 0.0 0.03 0.03 0.03 98 1006.6
20260505093025 11 240 1.6 4.8 0.03 0.03 0.03 96 1007.0
20260505092032 11 128 1.6 3.2 0.00 0.00 0.00 94 1007.2
20260505091021 10 270 0.0 3.2 0.00 0.00 0.00 92 1007.0
20260505090049 10 158 0.0 3.2 0.00 0.00 0.00 91 1006.6
20260505085019 10 283 0.0 3.2 0.00 0.00 0.00 91 1006.6
20260505084027 10 275 1.6 4.8 0.00 0.00 0.00 90 1006.3
20260505083035 10 304 1.6 3.2 0.00 0.00 0.00 89 1006.2
20260505082024 11 0.0 0.0 0.00 0.00 0.00 89 1006.1
20260505081033 11 0.0 0.0 0.00 0.00 0.00 88 1006.1
20260505080021 11 234 1.6 4.8 0.00 0.00 0.00 87 1006.1
20260505075030 11 81 1.6 4.8 0.00 0.00 0.00 86 1006.1
20260505074019 12 286 1.6 3.2 0.00 0.00 0.00 84 1006.1
20260505073027 12 0.0 0.0 0.00 0.00 0.00 82 1006.0
20260505072035 12 276 1.6 4.8 0.00 0.00 0.00 81 1006.0
20260505071025 13 0.0 0.0 0.00 0.00 0.00 80 1006.0
20260505070053 13 0.0 0.0 0.00 0.00 0.00 77 1006.0
20260505065122 14 189 1.6 4.8 0.00 0.00 0.00 75 1006.2
20260505064030 14 270 0.0 3.2 0.00 0.00 0.00 75 1006.3
20260505063019 14 0.0 0.0 0.00 0.00 0.00 73 1006.4
20260505062028 15 247 1.6 6.4 0.00 0.00 0.00 73 1006.4
20260505061036 14 113 0.0 3.2 0.00 0.00 0.00 73 1006.4
20260505060126 13 113 0.0 3.2 0.00 0.00 0.00 75 1006.4